Location: Sevilla
(37.3933°N, 5.9839°W)
Time: 06:09:42
(UTC+02:00)

Transit 2A Rocket - Pass Details

Date: 03 July 2024
Orbit: 582 x 910 km, 66.7° (Epoch: 15 July)

Event Time Altitude Azimuth Distance (km) Brightness Sun altitude
Rises 03:48:05 0° 342° (NNW) 3,528 9.2 -26.8°
Reaches altitude 10° 03:51:07 10° 356° (N) 2,599 8.5 -26.6°
Maximum altitude 03:55:59 24° 49° (NE) 1,780 7.5 -26.2°
Drops below altitude 10° 04:00:46 10° 102° (ESE) 2,562 7.8 -25.9°
Sets 04:03:43 0° 116° (ESE) 3,467 8.4 -25.6°
